Weather Roundup
Issued by NWS Springfield, MO

Home | Current Version | Previous Version | Text Only | Print | Product List | Glossary On
Versions: 1 2 3 4 5 6 7 8 9 10 11 12 13 14 15 16 17 18 19 20 21 22 23 24 25 26 27 28 29 30 31 32 33 34 35 36 37 38 39 40 41 42 43 44 45 46 47 48 49 50
000
NZUS99 KSGF 020207
HRRSGF

HOURLY WEATHER
NATIONAL WEATHER SERVICE SPRINGFIELD MO
900 PM CDT FRI AUG 01 2014

......SGF CWA......

CITY           SKY/WX    TMP DP  RH WIND       PRES   REMARKS
SPRINGFIELD    PTCLDY    73  65  75 W5        30.05S
JOPLIN         CLEAR     72  63  73 CALM      30.05R
WEST PLAINS    CLEAR     70  64  81 CALM      30.08R
ROLLA          CLEAR     69  60  73 E7        30.07R
OSAGE BEACH      N/A     72  61  68 CALM      30.06S
BRANSON        CLEAR     70  64  83 CALM      30.07S

......SURROUNDING SGF CWA......

CITY           SKY/WX    TMP DP  RH WIND       PRES   REMARKS
CHANUTE        CLEAR     72  64  76 S5        30.04R
PARSONS        CLEAR     71  65  81 CALM      30.05R
COFFEYVILLE    CLEAR     76  64  66 S5        30.03S
EMPORIA        CLEAR     76  64  66 S10       30.03R
GROVE OK       CLEAR     73  68  83 CALM      30.05R
ROGERS AR      CLEAR     73  65  75 NE3       30.08R
SILOAM SPRINGS CLEAR     73  61  64 CALM      30.07R
HARRISON AR    CLEAR     69  65  86 CALM      30.07S
NEAR YELLVILLE CLEAR     72  66  83 CALM      30.06R

......KANSAS AND MISSOURI......

CITY           SKY/WX    TMP DP  RH WIND       PRES   REMARKS
KANSAS CTY INT CLEAR     77  62  59 E8        30.06R
DOWNTOWN KC    CLEAR     78  63  59 E7        30.04R
COLUMBIA       PTCLDY    69  62  78 E6        30.07R
SEDALIA        CLEAR     70  62  76 E3        30.07R
ST JOSEPH      CLEAR     76  63  64 E5        30.05R
ST LOUIS       MOCLDY    74  64  71 E8        30.08R
SPIRIT OF STL  MOCLDY    69  68  96 CALM      30.07R FOG
KIRKSVILLE     CLEAR     70  62  76 NE5       30.08S
WICHITA        PTCLDY    79  65  62 S12       30.02R
TOPEKA         PTCLDY    79  64  60 E6        30.03R
OLATHE         CLEAR     76  62  62 SE5       30.05R

......TENNESSEE......

CITY           SKY/WX    TMP DP  RH WIND       PRES   REMARKS
MEMPHIS        PTCLDY    80  60  50 E6        30.02R
NASHVILLE      MOCLDY    79  63  57 CALM      30.04R

......ARKANSAS.......

CITY           SKY/WX    TMP DP  RH WIND       PRES   REMARKS
FAYETTEVILLE   CLEAR     70  67  90 CALM      30.06S
FT SMITH       CLEAR     76  67  73 SE3       30.03R
LITTLE ROCK    CLOUDY    73  67  81 W3        30.03S

......OKLAHOMA.......

CITY           SKY/WX    TMP DP  RH WIND       PRES   REMARKS
TULSA          PTCLDY    77  64  64 SE5       30.02S
PONCA CITY     PTCLDY    77  66  68 SE9       30.03R
MCALESTER      CLEAR     72  68  87 SE3       30.05R
OKLAHOMA CITY  MOCLDY    74  64  71 SE6       30.06R

......IOWA............

CITY           SKY/WX    TMP DP  RH WIND       PRES   REMARKS
DES MOINES     PTCLDY    77  59  53 E5        30.07R
QUAD CITIES    PTCLDY    70  65  84 SE8       30.08R

......ILLINOIS........

CITY           SKY/WX    TMP DP  RH WIND       PRES   REMARKS
QUINCY         CLEAR     69  62  78 S5        30.08R
CHICAGO        MOCLDY    70  58  65 NW7       30.10R




USA.gov is the U.S. government's official web portal to all federal, state and local government web resources and services.